| time (UTC) | temp F | wind direction | speed MPH | gust MPH | rain 1hr in | rain 24hr in | rain mn in | humidity % | barometer mb |
| 20260509041454 | 62 | 142 | 0.0 | 0.0 | 0.00 | 0.00 | 0.00 | 86 | 1013.9 |
| 20260509040431 | 62 | 141 | 0.0 | 0.0 | 0.00 | 0.00 | 0.00 | 85 | 1013.9 |
| 20260509035426 | 62 | 141 | 0.0 | 0.0 | 0.00 | 0.00 | 0.00 | 84 | 1013.6 |
| 20260509034357 | 62 | 141 | 0.0 | 0.0 | 0.00 | 0.00 | 0.00 | 84 | 1013.7 |
| 20260509033350 | 63 | 141 | 0.0 | 0.0 | 0.00 | 0.00 | 0.00 | 83 | 1013.8 |
| 20260509031209 | 63 | 141 | 0.0 | 0.0 | 0.00 | 0.00 | 0.00 | 83 | 1013.8 |
| 20260509030218 | 63 | 141 | 0.0 | 0.0 | 0.00 | 0.00 | 0.00 | 82 | 1013.6 |
| 20260509025156 | 64 | 141 | 0.0 | 0.0 | 0.00 | 0.00 | 0.00 | 82 | 1013.3 |
| 20260509024123 | 64 | 141 | 0.0 | 0.0 | 0.00 | 0.00 | 0.00 | 82 | 1013.5 |
| 20260509023051 | 64 | 141 | 0.0 | 0.0 | 0.00 | 0.00 | 0.00 | 81 | 1013.8 |
| 20260509022058 | 64 | 141 | 0.0 | 0.0 | 0.00 | 0.00 | 0.00 | 81 | 1013.9 |
| 20260509021121 | 64 | 141 | 0.0 | 0.0 | 0.00 | 0.00 | 0.00 | 80 | 1013.9 |
| 20260509014924 | 65 | 141 | 0.0 | 0.0 | 0.00 | 0.00 | 0.00 | 79 | 1013.9 |
| 20260509013911 | 65 | 141 | 0.0 | 0.0 | 0.00 | 0.00 | 0.00 | 79 | 1013.7 |
| 20260509012906 | 65 | 141 | 0.0 | 0.0 | 0.00 | 0.00 | 0.00 | 78 | 1013.7 |
| 20260509011929 | 65 | 141 | 0.0 | 0.0 | 0.00 | 0.00 | 0.00 | 80 | 1013.8 |
| 20260509010950 | 65 | 141 | 0.0 | 0.0 | 0.00 | 0.00 | 0.00 | 78 | 1013.8 |
| 20260509004845 | 65 | 141 | 0.0 | 0.0 | 0.00 | 0.00 | 0.00 | 78 | 1013.4 |
| 20260509003818 | 65 | 141 | 0.0 | 0.0 | 0.00 | 0.00 | 0.00 | 78 | 1013.5 |
| 20260509002745 | 66 | 141 | 0.0 | 0.0 | 0.00 | 0.00 | 0.00 | 78 | 1013.5 |
| 20260509001717 | 66 | 141 | 0.0 | 0.0 | 0.00 | 0.00 | 0.00 | 77 | 1013.4 |
| 20260508235522 | 67 | 141 | 0.0 | 0.0 | 0.00 | 0.00 | 0.00 | 75 | 1013.1 |
| 20260508234538 | 67 | 141 | 0.0 | 0.0 | 0.00 | 0.00 | 0.00 | 75 | 1012.9 |
| 20260508233600 | 68 | 142 | 0.0 | 0.0 | 0.00 | 0.00 | 0.00 | 72 | 1012.9 |
| 20260508232540 | 68 | 142 | 0.0 | 0.0 | 0.00 | 0.00 | 0.00 | 73 | 1013.2 |
| 20260508231558 | 68 | 142 | 0.0 | 0.0 | 0.00 | 0.00 | 0.00 | 72 | 1013.2 |
| 20260508230537 | 69 | 142 | 0.0 | 0.0 | 0.00 | 0.00 | 0.00 | 72 | 1012.9 |
| 20260508225510 | 69 | 142 | 0.0 | 0.0 | 0.00 | 0.00 | 0.00 | 71 | 1012.9 |
| 20260508224448 | 69 | 142 | 0.0 | 0.0 | 0.00 | 0.00 | 0.00 | 72 | 1012.8 |
| 20260508223419 | 70 | 142 | 0.0 | 0.0 | 0.00 | 0.00 | 0.00 | 69 | 1013.1 |
| 20260508222421 | 70 | 142 | 0.0 | 0.0 | 0.00 | 0.00 | 0.00 | 69 | 1013.1 |
| 20260508221414 | 71 | 142 | 0.0 | 0.0 | 0.00 | 0.00 | 0.00 | 69 | 1013.2 |
| 20260508220339 | 71 | 142 | 0.0 | 0.0 | 0.00 | 0.00 | 0.00 | 66 | 1013.2 |
| 20260508215317 | 71 | 142 | 0.0 | 0.0 | 0.00 | 0.00 | 0.00 | 65 | 1013.2 |
| 20260508213226 | 72 | 140 | 0.0 | 0.0 | 0.00 | 0.00 | 0.00 | 60 | 1013.2 |
| 20260508212224 | 72 | 140 | 0.0 | 0.0 | 0.00 | 0.00 | 0.00 | 57 | 1013.2 |
| 20260508211210 | 72 | 138 | 0.0 | 0.0 | 0.00 | 0.00 | 0.00 | 58 | 1013.0 |
| 20260508205020 | 73 | 142 | 0.0 | 3.0 | 0.00 | 0.00 | 0.00 | 56 | 1013.0 |
| 20260508202832 | 73 | 163 | 0.0 | 3.0 | 0.00 | 0.00 | 0.00 | 58 | 1013.4 |
| 20260508200655 | 74 | 181 | 0.0 | 0.0 | 0.00 | 0.00 | 0.00 | 55 | 1013.5 |
| 20260508195631 | 75 | 163 | 0.0 | 5.0 | 0.00 | 0.00 | 0.00 | 53 | 1013.6 |
| 20260508194632 | 74 | 177 | 1.0 | 5.0 | 0.00 | 0.00 | 0.00 | 53 | 1013.7 |
| 20260508193633 | 75 | 153 | 0.0 | 6.0 | 0.00 | 0.00 | 0.00 | 51 | 1013.7 |
| 20260508192604 | 74 | 107 | 0.0 | 5.0 | 0.00 | 0.00 | 0.00 | 56 | 1013.8 |
| 20260508191624 | 73 | 102 | 0.0 | 6.0 | 0.00 | 0.00 | 0.00 | 54 | 1013.8 |
| 20260508190642 | 73 | 96 | 1.0 | 5.0 | 0.00 | 0.00 | 0.00 | 54 | 1014.0 |
| 20260508185621 | 73 | 149 | 0.0 | 4.0 | 0.00 | 0.00 | 0.00 | 59 | 1014.2 |
| 20260508184550 | 74 | 128 | 0.0 | 9.0 | 0.00 | 0.00 | 0.00 | 54 | 1014.5 |
| 20260508183516 | 74 | 166 | 1.0 | 7.0 | 0.00 | 0.00 | 0.00 | 52 | 1014.6 |
| 20260508181406 | 74 | 169 | 0.0 | 6.0 | 0.00 | 0.00 | 0.00 | 52 | 1015.0 |
| 20260508180404 | 73 | 71 | 1.0 | 8.0 | 0.00 | 0.00 | 0.00 | 54 | 1015.0 |
| 20260508175357 | 72 | 169 | 0.0 | 6.0 | 0.00 | 0.00 | 0.00 | 53 | 1015.2 |
| 20260508174344 | 72 | 82 | 1.0 | 9.0 | 0.00 | 0.00 | 0.00 | 55 | 1015.0 |
| 20260508173354 | 72 | 113 | 0.0 | 8.0 | 0.00 | 0.00 | 0.00 | 55 | 1015.1 |
| 20260508171305 | 72 | 94 | 1.0 | 9.0 | 0.00 | 0.03 | 0.00 | 54 | 1015.8 |
| 20260508170259 | 72 | 160 | 0.0 | 8.0 | 0.00 | 0.06 | 0.00 | 53 | 1015.7 |
| 20260508165226 | 72 | 178 | 0.0 | 8.0 | 0.00 | 0.08 | 0.00 | 55 | 1015.8 |
| 20260508164244 | 71 | 84 | 1.0 | 4.0 | 0.00 | 0.12 | 0.00 | 53 | 1016.1 |
| 20260508163300 | 71 | 60 | 0.0 | 3.0 | 0.00 | 0.15 | 0.00 | 59 | 1016.3 |
| 20260508162252 | 70 | 71 | 0.0 | 5.0 | 0.00 | 0.22 | 0.00 | 56 | 1016.2 |
| 20260508161259 | 70 | 77 | 1.0 | 3.0 | 0.00 | 0.28 | 0.00 | 55 | 1016.2 |
| 20260508160300 | 70 | 77 | 0.0 | 8.0 | 0.00 | 0.30 | 0.00 | 53 | 1016.2 |
| 20260508155242 | 70 | 71 | 0.0 | 3.0 | 0.00 | 0.32 | 0.00 | 54 | 1016.3 |
| 20260508154227 | 70 | 113 | 1.0 | 1.0 | 0.00 | 0.35 | 0.00 | 56 | 1016.5 |
| 20260508152041 | 70 | 118 | 1.0 | 8.0 | 0.00 | 0.55 | 0.00 | 55 | 1016.6 |
| 20260508151048 | 70 | 67 | 1.0 | 11.0 | 0.00 | 0.61 | 0.00 | 55 | 1016.9 |
| 20260508150047 | 71 | 78 | 2.0 | 11.0 | 0.00 | 0.62 | 0.00 | 55 | 1016.9 |
| 20260508145028 | 70 | 108 | 1.0 | 9.0 | 0.00 | 0.68 | 0.00 | 56 | 1016.9 |
| 20260508144018 | 70 | 153 | 1.0 | 6.0 | 0.00 | 0.70 | 0.00 | 58 | 1016.8 |
| 20260508143031 | 69 | 110 | 1.0 | 10.0 | 0.00 | 0.72 | 0.00 | 57 | 1016.8 |
| 20260508142021 | 69 | 55 | 3.0 | 10.0 | 0.00 | 0.72 | 0.00 | 59 | 1016.9 |
| 20260508141005 | 68 | 78 | 1.0 | 12.0 | 0.00 | 0.77 | 0.00 | 60 | 1016.9 |
| 20260508140027 | 68 | 81 | 4.0 | 12.0 | 0.00 | 0.83 | 0.00 | 58 | 1017.0 |
| 20260508135032 | 67 | 72 | 2.0 | 10.0 | 0.00 | 0.98 | 0.00 | 64 | 1016.9 |
| 20260508132852 | 66 | 74 | 1.0 | 7.0 | 0.00 | 1.10 | 0.00 | 69 | 1016.8 |
| 20260508131818 | 66 | 117 | 0.0 | 7.0 | 0.00 | 1.12 | 0.00 | 69 | 1016.7 |
| 20260508130806 | 65 | 74 | 0.0 | 0.0 | 0.00 | 1.13 | 0.00 | 75 | 1016.5 |
| 20260508124651 | 63 | 76 | 0.0 | 0.0 | 0.00 | 1.13 | 0.00 | 80 | 1016.1 |
| 20260508123703 | 62 | 76 | 0.0 | 5.0 | 0.00 | 1.13 | 0.00 | 84 | 1016.1 |
| 20260508122714 | 61 | 319 | 0.0 | 3.0 | 0.00 | 1.13 | 0.00 | 87 | 1016.2 |
| 20260508121729 | 59 | 319 | 0.0 | 0.0 | 0.00 | 1.13 | 0.00 | 89 | 1016.0 |
| 20260508120713 | 59 | 319 | 0.0 | 0.0 | 0.00 | 1.13 | 0.00 | 89 | 1016.0 |
| 20260508115643 | 59 | 319 | 0.0 | 0.0 | 0.00 | 1.13 | 0.00 | 90 | 1015.8 |
| 20260508114625 | 58 | 319 | 0.0 | 0.0 | 0.00 | 1.13 | 0.00 | 91 | 1015.5 |
| 20260508113555 | 57 | 319 | 0.0 | 1.0 | 0.00 | 1.13 | 0.00 | 92 | 1015.4 |
| 20260508112553 | 56 | 319 | 0.0 | 0.0 | 0.00 | 1.13 | 0.00 | 91 | 1015.0 |
| 20260508111612 | 56 | 319 | 0.0 | 0.0 | 0.00 | 1.13 | 0.00 | 91 | 1014.9 |
| 20260508110557 | 56 | 319 | 0.0 | 0.0 | 0.00 | 1.14 | 0.00 | 90 | 1014.9 |
| 20260508105558 | 56 | 319 | 0.0 | 0.0 | 0.00 | 1.16 | 0.00 | 90 | 1014.6 |
| 20260508104535 | 56 | 319 | 0.0 | 0.0 | 0.00 | 1.16 | 0.00 | 89 | 1014.4 |
| 20260508103553 | 56 | 319 | 0.0 | 0.0 | 0.00 | 1.17 | 0.00 | 90 | 1014.3 |
| 20260508102529 | 56 | 319 | 0.0 | 0.0 | 0.00 | 1.17 | 0.00 | 89 | 1014.1 |
| 20260508101548 | 56 | 319 | 0.0 | 0.0 | 0.00 | 1.18 | 0.00 | 89 | 1014.2 |
| 20260508100545 | 56 | 319 | 0.0 | 0.0 | 0.00 | 1.18 | 0.00 | 89 | 1014.1 |
| 20260508095524 | 56 | 319 | 0.0 | 0.0 | 0.00 | 1.18 | 0.00 | 89 | 1013.8 |
| 20260508092227 | 56 | 319 | 0.0 | 0.0 | 0.00 | 1.18 | 0.00 | 88 | 1013.4 |
| 20260508090056 | 57 | 319 | 0.0 | 0.0 | 0.00 | 1.19 | 0.00 | 88 | 1013.2 |
| 20260508085120 | 57 | 319 | 0.0 | 0.0 | 0.00 | 1.22 | 0.00 | 87 | 1013.0 |
| 20260508084051 | 57 | 319 | 0.0 | 0.0 | 0.00 | 1.28 | 0.00 | 87 | 1013.0 |
| 20260508083019 | 57 | 319 | 0.0 | 0.0 | 0.00 | 1.36 | 0.00 | 86 | 1012.8 |
| 20260508081952 | 58 | 319 | 0.0 | 0.0 | 0.00 | 1.38 | 0.00 | 85 | 1012.9 |
| 20260508080948 | 58 | 319 | 0.0 | 0.0 | 0.00 | 1.40 | 0.00 | 86 | 1012.8 |
| 20260508073702 | 58 | 319 | 0.0 | 0.0 | 0.00 | 1.46 | 0.00 | 85 | 1012.8 |
| 20260508072657 | 59 | 319 | 0.0 | 0.0 | 0.00 | 1.47 | 0.00 | 86 | 1012.7 |
| 20260508070608 | 59 | 321 | 0.0 | 4.0 | 0.00 | 1.48 | 0.00 | 84 | 1012.7 |
| 20260508065547 | 59 | 321 | 0.0 | 0.0 | 0.00 | 1.48 | 0.00 | 84 | 1012.8 |
| 20260508064528 | 59 | 321 | 0.0 | 2.0 | 0.00 | 1.49 | 0.00 | 84 | 1012.6 |
| 20260508062426 | 60 | 321 | 0.0 | 0.0 | 0.00 | 1.49 | 0.00 | 82 | 1012.5 |
| 20260508061358 | 61 | 321 | 0.0 | 0.0 | 0.00 | 1.49 | 0.00 | 80 | 1012.7 |
| 20260508055234 | 62 | 321 | 0.0 | 0.0 | 0.00 | 1.49 | 0.00 | 79 | 1012.9 |
| 20260508054209 | 62 | 321 | 0.0 | 0.0 | 0.00 | 1.49 | 0.00 | 80 | 1013.0 |
| 20260508053145 | 62 | 321 | 0.0 | 0.0 | 0.00 | 1.49 | 0.00 | 77 | 1012.8 |
| 20260508052138 | 62 | 321 | 0.0 | 5.0 | 0.00 | 1.49 | 0.00 | 77 | 1012.6 |
| 20260508051154 | 63 | 321 | 0.0 | 7.0 | 0.00 | 1.49 | 0.00 | 80 | 1012.7 |
| 20260508050140 | 63 | 324 | 0.0 | 0.0 | 0.00 | 1.49 | 0.00 | 78 | 1012.5 |
| 20260508045204 | 63 | 323 | 0.0 | 3.0 | 0.00 | 1.49 | 0.00 | 83 | 1012.8 |
| 20260508044218 | 64 | 323 | 0.0 | 0.0 | 0.00 | 1.49 | 0.00 | 80 | 1012.6 |
| 20260508043147 | 64 | 324 | 0.0 | 0.0 | 0.00 | 1.49 | 0.00 | 78 | 1012.4 |
| 20260508042206 | 65 | 324 | 0.0 | 5.0 | 0.00 | 1.49 | 0.00 | 78 | 1012.4 |